Theta_e
321 323 328 340 347 351 350 350 348 345 347 348 348 348 347 347 347 346 346 346 346 346 346 345 345 345 344 344 344 344 344 344 344 344 344 344 344 343 343 343 343 343 344 345 345 346 346 346 347 348 348 348 348 348 349 350 350 351 353 353 352 352 352 351 352 352 353 352 353 352 354 354 354 355 353 353 355 354 352 352 352 349 347 349 353
322 324 332 340 346 349 350 350 350 346 347 347 347 348 348 349 348 347 348 348 346 346 346 346 345 345 345 344 344 344 344 344 343 344 344 344 343 343 343 343 342 343 344 344 344 345 345 346 346 347 347 347 347 348 348 348 348 351 351 352 352 351 351 351 351 351 352 351 350 352 352 354 354 354 353 353 352 353 352 351 351 348 343 351 353
326 334 339 342 344 345 346 345 346 346 347 345 345 346 348 349 348 345 347 347 348 348 346 346 346 346 346 345 345 345 344 344 344 344 344 345 344 343 343 343 343 343 344 344 345 346 345 346 346 346 346 347 346 346 347 348 349 351 351 352 353 352 351 351 350 350 351 351 351 351 349 351 354 354 354 354 351 352 352 352 351 348 346 353 353
330 333 337 339 340 342 342 341 342 343 344 345 345 345 344 345 345 347 348 348 348 349 347 346 347 348 348 347 346 346 345 345 344 345 345 344 344 346 347 345 343 343 344 345 345 346 345 345 345 345 345 346 346 346 346 347 348 350 352 352 352 352 351 350 350 350 350 350 350 348 345 345 347 353 353 353 352 351 351 351 349 349 352 354 353
324 326 328 330 332 335 340 341 342 342 342 342 343 343 343 343 345 345 345 345 346 347 349 347 347 348 348 348 349 348 347 347 346 345 345 345 345 346 347 348 346 344 344 345 345 345 345 345 345 345 345 346 346 346 347 347 347 348 350 352 352 351 351 350 350 350 350 349 348 346 343 344 344 350 353 353 351 350 349 351 350 351 353 353 353
316 317 318 322 324 328 335 339 340 341 342 342 342 343 343 342 343 343 344 344 346 345 346 345 346 347 347 348 347 347 346 347 347 347 346 346 346 345 347 347 346 345 345 346 346 345 344 345 345 345 345 345 345 346 345 346 347 347 348 351 352 351 350 350 350 350 349 347 346 343 343 343 343 346 353 352 353 351 350 350 351 352 353 353 353
311 312 313 317 321 327 333 335 339 340 340 341 341 342 342 341 342 342 342 343 342 343 344 345 345 345 346 348 347 346 347 347 347 347 346 346 346 345 345 346 345 345 346 346 346 345 345 345 346 344 345 346 345 344 345 345 346 347 347 350 351 351 351 350 349 349 347 346 343 342 342 343 343 343 351 351 352 351 350 352 352 353 352 352 351
307 308 309 313 319 327 331 333 335 336 337 338 338 339 340 340 340 342 341 342 341 342 343 343 343 343 344 343 343 344 346 346 346 347 348 346 346 345 345 346 345 346 346 347 347 347 347 347 346 346 345 347 346 344 343 344 345 346 347 349 350 350 350 350 348 347 346 345 341 342 342 342 343 343 351 351 352 352 352 351 351 352 351 351 347
304 305 306 309 314 324 327 330 332 333 333 334 334 335 336 337 338 340 341 341 341 341 341 341 342 342 342 342 344 344 343 344 344 345 345 346 345 345 345 346 345 346 347 347 347 347 347 348 348 348 348 348 348 347 344 343 344 345 346 347 349 350 350 349 347 345 344 343 341 341 342 343 343 343 349 352 353 352 352 350 350 351 350 349 348
301 302 305 306 312 321 322 325 328 329 330 330 331 333 334 335 335 336 338 338 339 340 340 340 340 341 341 341 341 341 343 343 344 344 343 344 344 345 346 345 345 346 347 347 347 347 347 347 347 347 348 347 348 347 347 346 344 344 345 346 347 349 349 349 347 343 343 343 341 340 341 343 343 343 347 353 352 353 352 347 345 345 346 348 347
299 300 302 305 311 318 320 322 323 324 325 326 327 328 329 330 331 333 334 335 336 337 338 339 340 340 340 340 340 341 340 341 340 341 342 343 344 344 345 345 345 345 346 348 348 347 347 347 348 347 347 347 347 347 348 347 347 346 344 345 347 349 350 348 344 343 342 342 340 340 341 342 343 342 348 352 353 351 350 346 344 343 348 348 349
299 299 299 303 313 316 316 317 319 321 322 323 325 325 325 325 326 328 328 329 330 331 333 334 336 337 338 339 340 340 340 340 340 340 340 340 341 342 343 343 344 344 345 345 348 346 349 346 347 347 346 347 347 347 347 347 347 347 346 346 347 348 348 346 343 341 341 341 341 339 340 342 342 343 349 352 352 351 349 347 348 350 350 350 350
299 299 299 300 304 313 314 315 316 317 318 320 322 323 321 322 324 325 326 326 326 326 328 330 331 332 333 334 335 337 338 340 340 340 340 340 340 340 341 343 343 343 344 345 346 346 345 347 348 345 345 346 346 347 347 347 347 347 347 347 347 348 345 343 343 340 340 340 341 339 339 340 342 345 350 352 352 351 351 350 350 351 351 351 351
298 298 299 298 302 311 311 311 312 314 315 317 319 320 320 320 320 321 322 323 323 324 325 325 326 328 330 331 332 333 334 335 338 339 340 340 340 340 340 340 341 342 343 344 345 346 347 344 345 346 345 344 346 347 347 347 347 347 346 346 346 345 343 339 340 340 339 339 340 340 339 338 341 345 350 353 352 351 351 351 351 350 351 351 350
297 298 299 298 297 301 309 309 310 310 311 313 314 316 318 317 318 319 320 320 320 320 321 322 323 325 326 325 325 327 329 331 334 335 338 339 339 339 339 340 340 340 341 342 343 343 344 345 343 344 345 345 345 346 346 347 347 346 346 345 344 342 341 342 341 339 339 339 339 339 339 339 342 346 350 352 353 351 350 351 351 351 351 350 349
298 297 297 297 297 297 300 306 307 308 308 309 310 312 313 313 315 315 316 317 318 318 318 319 320 320 320 320 321 323 326 329 331 332 334 335 336 337 338 339 339 340 340 341 341 342 343 343 343 343 343 343 343 344 346 346 346 346 344 344 341 339 337 335 340 340 339 338 338 338 339 338 342 346 350 352 352 351 351 351 351 352 351 349 349
297 298 296 296 297 296 297 300 303 305 305 306 307 309 310 311 312 313 313 314 314 314 315 316 317 315 316 316 318 320 322 325 327 329 330 332 333 334 335 335 336 338 339 340 340 340 341 341 341 343 343 343 343 343 344 346 345 344 343 341 340 339 336 332 340 340 340 339 338 338 338 338 340 346 350 352 352 351 351 351 352 351 350 348 347
296 296 295 295 295 296 296 297 297 296 296 300 304 306 309 309 309 309 309 310 311 311 311 312 313 312 312 312 314 316 317 319 321 323 326 328 330 331 331 333 334 335 337 339 339 339 339 340 340 340 342 342 342 343 342 343 344 343 341 341 339 337 334 329 338 341 340 338 338 337 338 338 340 345 349 352 353 352 350 349 350 351 349 348 346
295 294 294 294 294 295 295 295 296 295 295 296 296 298 306 307 307 307 307 308 308 308 308 309 309 308 309 309 311 314 313 314 315 316 317 319 322 324 325 329 330 332 333 336 338 338 338 337 338 340 340 341 342 342 342 342 341 341 340 338 336 333 330 330 336 340 340 339 338 337 337 338 340 345 348 350 352 351 351 349 349 350 349 348 346
295 294 294 293 293 294 294 295 295 295 294 295 295 295 302 306 305 306 306 306 306 306 306 307 307 306 307 307 309 309 309 308 312 311 313 316 320 321 322 326 328 330 331 333 334 335 336 337 338 338 339 340 340 340 339 340 340 340 338 336 334 328 333 334 336 337 340 339 337 337 337 339 342 346 348 348 351 351 352 350 348 348 349 348 346
294 294 293 293 292 293 293 294 294 294 294 295 295 295 298 303 301 302 304 304 305 305 304 304 305 303 303 304 305 304 303 303 304 305 308 312 316 316 316 314 317 323 327 330 332 333 334 335 337 338 338 338 336 333 333 336 338 339 337 335 329 333 334 335 337 337 338 339 337 337 337 339 342 346 347 347 349 351 351 352 351 349 349 348 347
290 292 293 293 292 292 292 293 293 294 293 295 296 295 296 299 295 295 296 299 301 303 297 298 302 296 302 299 299 301 301 301 302 307 304 310 312 311 310 311 314 315 315 317 320 324 330 332 332 336 337 336 334 334 333 331 331 333 333 330 332 335 334 335 336 337 336 338 336 336 337 340 343 346 347 347 348 350 350 349 348 348 348 347 346
289 290 292 293 292 291 291 292 293 293 293 292 295 294 293 294 294 294 296 299 297 297 295 296 295 295 296 297 298 298 299 299 299 303 306 310 307 308 308 309 310 311 314 317 319 322 327 330 332 332 333 331 332 333 333 334 334 326 324 330 334 334 334 334 336 337 337 337 337 335 336 340 343 346 347 347 347 348 346 347 349 349 346 346 346
288 289 291 293 291 291 291 291 293 293 292 292 294 292 292 293 293 293 294 294 293 295 294 295 295 295 295 296 296 297 298 296 302 303 305 304 302 305 306 307 308 309 311 314 317 319 322 324 326 328 328 327 332 333 333 333 333 333 332 333 334 334 334 334 335 336 337 336 337 334 336 341 343 345 347 348 347 346 348 349 345 347 345 345 346
289 290 290 291 290 291 290 290 291 292 292 291 291 291 293 291 292 292 293 292 292 293 293 294 294 294 295 295 296 297 296 295 296 296 298 299 298 299 300 301 302 304 310 310 313 315 316 317 320 323 327 329 331 331 332 333 332 332 333 332 331 332 333 333 335 336 337 337 336 333 334 338 342 345 347 348 347 346 347 345 345 346 345 345 346
290 288 288 288 289 290 289 289 290 290 291 290 291 293 292 290 291 291 292 291 292 292 292 292 292 293 294 295 295 295 295 294 294 295 296 296 296 296 298 300 301 302 306 308 310 311 313 315 318 321 324 327 328 330 331 330 332 332 332 331 331 330 331 333 335 335 336 337 336 331 333 336 341 343 346 347 348 347 346 346 347 344 347 344 345
287 287 287 287 291 288 289 289 289 290 290 290 290 289 289 290 290 292 292 290 292 291 290 290 291 293 294 294 295 295 294 294 294 294 294 295 295 296 296 297 299 301 304 305 306 308 310 311 313 315 318 322 325 327 330 331 331 331 331 330 330 330 330 332 334 335 336 336 332 329 330 332 338 343 345 348 346 345 348 346 347 343 343 342 348
287 287 287 287 288 288 288 287 288 291 289 289 289 288 288 290 291 293 290 291 292 289 289 290 291 291 292 293 295 294 293 293 293 294 294 294 295 295 295 296 297 300 303 303 304 306 306 308 310 312 315 318 321 323 327 330 331 331 330 330 329 329 330 331 333 334 335 336 335 330 328 330 333 337 343 346 347 345 348 348 345 348 349 349 348
287 287 287 287 287 289 288 287 287 288 289 289 288 288 288 289 289 288 288 295 289 289 289 290 289 290 290 291 292 292 292 292 292 293 294 294 294 295 295 295 296 298 300 301 303 303 304 306 308 310 312 314 317 319 322 325 328 329 329 329 329 329 329 331 332 333 334 335 335 332 327 329 332 334 338 344 347 347 346 347 344 347 346 347 342
286 286 286 287 286 288 286 286 287 289 290 288 288 288 288 288 288 288 288 291 288 289 289 288 288 288 289 290 291 291 291 291 292 292 292 293 294 294 294 294 295 297 298 298 300 302 303 304 306 308 310 311 312 316 318 320 324 327 329 328 329 328 329 330 331 332 333 334 335 333 325 326 330 335 337 339 343 347 348 342 345 344 346 344 344
287 286 286 286 289 287 286 287 287 290 289 288 288 288 288 287 289 288 288 288 288 289 288 288 288 288 289 289 290 290 291 290 291 291 292 292 293 292 292 294 295 296 296 296 299 300 302 303 305 306 306 305 307 310 312 315 319 324 327 327 327 329 329 329 330 331 332 334 334 334 331 323 326 329 333 336 340 343 346 343 346 346 344 344 346
285 286 286 287 286 286 286 287 287 288 290 287 289 288 288 288 289 288 287 288 288 288 287 287 289 288 289 289 289 289 290 290 290 291 292 292 292 291 292 293 294 295 295 296 297 299 300 302 304 304 302 301 302 305 308 310 315 320 324 326 327 327 328 329 329 330 331 332 333 333 333 330 323 325 327 333 339 340 343 340 342 342 343 348 349
285 286 286 286 285 286 288 288 287 287 287 287 287 287 288 287 288 287 288 289 287 287 287 287 287 288 288 288 288 288 289 289 289 289 290 290 290 290 291 292 293 294 294 296 297 298 299 301 301 300 299 300 301 302 305 308 311 316 321 324 325 326 328 329 329 330 330 331 332 333 333 331 330 323 322 325 332 337 340 342 344 343 341 343 349
286 286 285 285 288 289 289 290 289 287 288 287 289 286 287 287 288 287 287 287 286 286 287 286 286 286 286 286 286 287 287 287 286 286 287 287 288 289 290 291 292 293 294 295 296 297 298 298 298 298 298 298 299 300 303 305 307 312 317 322 324 326 327 327 328 328 330 330 331 332 332 332 331 330 327 321 323 328 335 339 341 341 340 340 343
286 284 285 285 285 285 290 289 289 287 286 286 287 286 288 287 286 286 286 286 286 286 285 285 285 285 285 285 285 285 286 285 285 286 286 286 286 287 288 290 291 292 293 294 295 296 297 297 297 296 297 298 299 300 301 303 305 307 312 317 321 324 325 326 327 328 328 329 331 331 331 331 331 330 329 327 319 321 327 334 340 343 342 341 340
284 284 284 286 284 284 287 286 286 286 285 287 286 286 286 286 285 288 285 285 285 285 284 284 284 284 284 284 284 284 285 285 285 285 285 286 286 286 287 289 291 292 292 293 295 295 296 297 297 296 296 296 298 298 300 299 301 303 307 313 318 321 323 325 326 327 328 328 329 330 331 331 331 330 324 329 327 323 321 326 333 339 339 337 338
284 284 284 284 284 284 286 286 285 285 285 285 286 286 285 285 285 284 285 285 284 284 284 284 284 283 283 283 283 284 284 284 285 285 284 284 284 284 285 286 288 290 292 293 293 295 295 296 296 297 297 296 297 296 297 297 298 300 302 306 313 317 321 324 325 326 327 327 327 328 329 330 329 321 328 329 328 328 323 322 326 331 331 332 334
284 284 283 284 284 284 285 286 286 285 285 285 285 285 285 284 283 283 285 283 283 283 283 283 283 283 283 283 283 284 284 284 284 284 284 284 284 283 283 284 285 287 288 291 292 294 295 295 295 296 296 296 295 294 294 296 297 298 300 303 307 313 318 322 323 321 325 326 327 327 328 329 330 329 329 329 328 328 328 325 322 324 323 327 334
283 282 283 284 284 284 286 284 286 284 284 284 285 284 283 283 283 283 282 282 282 282 283 282 283 282 282 283 283 283 284 283 283 284 283 283 282 282 283 283 284 285 286 288 290 292 294 295 295 295 296 296 294 294 295 296 297 298 300 303 306 309 316 320 321 323 324 325 326 325 327 328 329 330 329 329 329 328 328 329 328 327 329 323 332
282 282 285 283 283 283 284 284 284 284 284 283 283 283 282 282 281 281 281 281 281 282 282 282 282 282 283 282 282 282 283 283 283 283 282 282 282 282 282 283 284 285 285 286 288 290 292 293 293 294 294 294 295 295 295 295 296 297 298 302 306 308 312 317 320 322 322 324 325 325 325 327 328 329 329 329 329 328 328 328 326 329 330 328 326
282 282 282 283 283 283 283 282 283 283 283 282 282 282 280 280 280 280 279 280 281 282 281 281 281 281 282 282 282 282 282 282 282 282 281 282 282 282 282 282 282 283 283 285 287 289 291 293 294 294 293 293 293 294 294 296 295 295 297 299 303 307 310 314 318 321 322 323 325 324 325 325 326 327 328 329 329 328 328 329 329 329 330 331 326
282 281 281 282 282 282 282 282 283 282 282 282 282 281 280 280 279 279 279 279 279 279 279 280 281 282 281 281 281 281 281 281 281 281 281 281 280 280 280 281 281 282 283 284 285 287 288 292 294 293 294 293 292 293 294 295 292 292 293 294 297 302 308 313 317 319 321 322 323 324 324 324 325 326 327 328 328 328 329 329 330 329 329 330 329
280 280 281 281 282 282 282 282 282 282 282 283 282 280 280 281 280 279 279 279 280 280 280 281 281 280 280 280 281 280 280 280 280 281 280 280 280 280 280 281 281 282 281 281 283 284 286 287 290 291 291 293 293 294 293 295 292 294 295 294 292 293 299 307 311 315 319 320 322 322 323 324 324 325 325 326 327 327 328 329 329 329 329 329 329
281 280 281 281 282 282 281 281 281 281 281 282 283 281 281 281 280 280 280 279 279 281 280 280 279 279 279 280 280 280 280 280 280 280 280 280 280 280 281 281 280 281 281 280 281 282 284 287 289 291 292 290 291 291 293 294 296 294 289 291 293 296 295 300 306 311 316 318 319 321 322 323 324 324 325 324 325 327 328 329 329 329 329 329 329
280 280 281 281 283 281 281 281 281 281 281 282 281 280 281 279 279 279 279 279 279 278 278 278 278 279 279 278 279 279 279 279 279 279 280 279 280 280 280 280 280 280 280 280 281 282 285 286 288 290 291 291 290 291 292 293 294 297 294 291 290 289 291 300 306 308 312 314 317 320 320 321 322 323 323 324 325 326 327 327 328 329 329 328 328
280 281 280 281 281 281 281 280 281 281 280 280 280 281 279 278 277 276 275 276 275 276 275 275 276 276 277 278 278 279 279 279 279 279 279 280 279 280 280 279 279 279 280 280 281 283 283 283 285 288 291 293 292 291 290 292 294 295 297 297 295 291 293 295 294 294 303 310 314 317 319 320 321 320 322 323 324 324 324 326 327 327 328 328 328
280 280 280 281 280 281 281 280 280 280 281 280 279 281 278 277 277 276 276 275 275 276 276 277 277 277 278 277 278 278 278 278 278 278 279 279 279 279 279 279 279 279 280 280 280 280 281 282 285 287 289 292 293 290 290 291 292 293 296 297 297 297 297 295 292 295 296 301 304 308 314 318 319 320 320 322 323 323 324 325 326 327 327 328 327
280 280 280 280 280 280 279 280 280 281 280 279 279 279 278 277 277 276 277 276 275 275 276 276 277 278 277 277 277 277 278 278 278 278 278 278 278 278 278 278 278 278 279 279 279 279 281 282 284 285 287 290 292 291 291 292 289 290 294 295 296 297 298 298 298 295 294 295 302 305 309 314 317 318 319 320 321 322 322 322 325 325 325 325 326
279 280 280 280 280 279 280 279 279 279 279 278 280 278 279 278 276 276 275 276 276 277 277 277 276 276 275 276 276 276 277 277 277 277 277 277 278 277 277 277 277 278 279 279 279 279 279 280 281 283 286 287 290 292 292 292 291 290 291 293 295 295 296 296 297 297 295 294 300 304 304 306 311 315 316 319 321 321 321 321 322 323 322 322 323
279 281 280 280 279 279 279 279 278 278 278 277 277 277 277 278 276 275 275 275 275 275 275 275 275 275 274 275 275 275 276 276 276 276 276 277 276 277 277 277 277 277 279 278 278 277 278 279 281 282 283 283 285 290 291 292 292 291 293 293 292 293 293 293 294 294 295 297 296 303 305 305 305 309 313 315 317 319 321 321 320 320 321 321 321
279 279 279 279 278 278 278 277 278 277 278 277 277 276 276 276 276 275 275 274 274 274 274 274 274 274 274 274 274 275 275 275 275 276 276 276 276 276 276 276 276 277 277 277 276 276 277 278 280 280 281 283 286 289 291 292 292 291 292 294 293 293 292 290 291 293 293 294 299 304 306 307 308 308 310 314 314 316 318 320 319 319 320 320 319
Wind_Speed
9 11 11 9 12 10 9 10 5 2 6 4 2 2 2 4 4 3 3 4 4 4 4 4 3 3 3 3 3 4 4 4 4 5 5 5 6 6 6 7 8 9 9 9 9 10 10 10 10 10 10 9 8 9 8 8 8 9 10 8 8 9 8 6 5 5 6 6 6 9 9 9 11 11 11 12 12 13 10 11 10 8 6 6 10
13 13 8 8 14 13 12 11 11 5 7 7 4 3 3 4 4 6 6 5 5 5 6 6 5 5 5 5 5 5 6 6 6 7 7 7 7 7 8 8 8 8 9 10 10 10 11 11 11 11 10 10 10 9 9 9 8 8 9 9 8 9 9 6 5 5 5 5 4 6 7 10 11 12 13 12 12 13 10 11 11 7 4 10 12
6 9 8 9 13 17 18 17 16 14 9 8 11 14 10 6 2 2 7 6 7 7 7 6 6 7 7 7 7 7 7 7 8 8 8 9 9 8 8 9 9 9 9 10 11 12 11 11 11 11 11 11 10 9 10 10 9 8 8 9 9 9 9 7 6 6 5 6 6 5 6 7 10 12 14 14 12 13 12 12 11 10 6 13 12
12 11 10 11 14 16 19 19 18 18 15 14 13 11 13 15 15 8 6 6 8 8 5 8 8 7 7 8 8 9 9 10 9 10 10 10 9 9 8 8 10 10 10 10 11 12 12 12 12 11 10 9 10 10 10 10 9 8 8 9 8 9 10 7 7 6 6 6 5 6 3 3 4 8 13 13 14 13 11 11 10 11 12 12 12
10 10 10 9 11 16 19 18 17 17 18 17 16 15 14 11 13 13 12 12 12 10 7 7 8 7 8 10 10 9 11 11 12 11 12 12 12 11 9 8 9 9 10 11 12 12 12 12 12 12 12 9 9 10 9 10 11 9 9 10 9 8 9 8 8 7 6 6 6 5 3 3 3 6 12 13 14 14 11 10 12 13 13 15 14
8 8 9 10 10 12 20 20 19 19 18 18 18 19 19 19 18 16 13 13 13 12 12 11 10 8 9 10 10 12 13 13 12 13 12 12 13 12 12 9 9 12 13 13 13 13 12 12 13 13 13 10 9 9 10 11 11 11 10 11 11 9 9 8 8 7 6 6 6 4 4 4 3 4 13 13 14 13 11 11 13 13 14 15 14
7 7 9 10 9 13 18 20 20 20 19 20 20 20 20 20 20 19 19 16 13 15 15 13 13 13 13 11 9 10 12 13 15 15 14 14 13 14 13 12 12 12 14 15 15 14 13 13 12 13 13 10 9 10 10 11 12 12 12 12 12 10 10 9 8 7 7 4 4 4 4 5 4 3 11 14 14 13 13 14 15 15 16 14 13
9 9 9 10 10 13 20 21 21 21 21 20 20 20 20 20 20 19 19 19 19 17 15 15 16 16 16 14 13 14 15 14 13 15 15 14 17 16 14 14 15 15 15 16 16 16 15 14 14 13 13 11 9 10 10 11 12 12 12 12 12 12 10 9 8 7 8 4 4 4 4 4 5 4 11 15 16 15 14 16 14 13 14 14 14
10 9 10 10 11 19 20 21 22 22 21 21 20 20 19 19 19 19 18 18 18 19 19 18 15 15 15 17 18 16 14 13 13 16 16 16 16 17 18 17 16 15 16 17 17 17 17 15 15 15 15 14 12 9 10 11 11 12 13 13 13 13 11 9 8 8 6 4 4 4 5 4 5 5 9 16 15 15 15 13 12 13 14 12 13
9 8 9 9 11 20 21 22 22 22 22 22 21 21 21 21 20 19 19 20 20 18 18 18 18 18 18 18 18 17 16 15 15 14 15 16 17 17 16 18 18 17 15 17 17 18 19 18 17 16 15 14 12 13 12 11 11 12 12 13 14 13 11 10 9 8 5 4 4 5 5 6 5 5 8 17 17 16 15 13 8 8 8 12 12
9 8 8 9 14 21 23 23 22 22 22 22 22 22 22 22 21 21 21 20 20 19 20 20 19 18 19 19 19 19 18 17 16 15 14 14 16 16 17 17 18 18 17 15 16 18 19 19 18 17 17 15 13 13 12 12 13 12 12 13 14 12 11 11 9 5 5 5 5 5 6 9 5 5 10 15 18 17 14 13 13 14 12 15 16
8 8 8 8 13 22 24 24 24 23 23 22 22 23 23 23 22 22 22 22 21 21 21 20 20 19 20 20 20 20 20 19 18 17 15 15 15 16 17 16 17 18 20 19 16 18 17 19 20 18 18 14 12 12 13 14 13 12 13 12 12 12 12 11 7 5 5 6 6 5 5 7 8 7 13 17 19 17 13 11 15 17 18 18 18
8 8 8 8 9 18 23 24 24 24 24 24 23 23 24 23 23 23 23 23 23 23 22 21 21 21 21 20 20 20 20 20 19 20 19 18 17 16 16 17 17 19 18 18 17 19 21 19 18 20 19 16 14 12 12 13 13 12 11 12 12 13 12 12 7 6 6 6 6 6 6 6 7 11 15 17 19 18 17 15 16 18 19 20 19
7 7 7 7 7 13 20 22 23 23 24 25 24 24 24 24 24 23 23 23 23 23 23 23 23 22 22 22 22 22 21 21 21 20 20 20 20 19 19 18 18 18 19 19 19 19 20 19 19 17 19 19 15 13 12 13 13 13 12 12 13 13 13 10 8 6 7 7 7 8 7 6 7 11 15 19 19 20 17 18 18 19 19 20 22
7 7 6 7 7 8 14 19 21 22 22 23 23 23 23 24 24 24 24 24 24 24 23 23 23 23 23 24 24 23 22 21 21 21 20 19 19 19 20 20 20 20 19 20 21 20 19 22 20 19 18 17 15 14 14 13 14 13 13 13 13 13 13 7 7 6 7 7 7 8 8 7 11 14 16 19 20 20 19 19 19 18 19 20 17
6 5 5 7 7 6 7 12 17 19 19 20 22 23 23 24 23 24 24 24 24 24 24 23 23 24 24 25 24 24 23 23 22 21 22 21 21 20 20 20 20 20 21 21 21 21 21 21 21 18 15 16 17 17 15 14 14 14 13 13 13 13 13 10 7 7 7 7 7 7 8 8 14 16 17 19 22 22 21 21 21 21 19 17 19
6 6 8 8 7 7 7 9 11 15 14 17 18 20 22 23 23 23 24 23 24 24 24 24 24 24 24 24 24 23 23 23 23 23 23 22 21 22 22 22 22 21 20 21 21 22 21 21 22 20 16 15 16 18 19 16 16 14 13 13 13 14 13 12 8 8 7 8 7 7 8 8 13 17 19 19 22 21 20 22 22 20 18 16 19
6 7 10 7 7 6 6 7 8 9 9 10 12 16 18 20 21 22 22 23 23 24 23 23 23 24 25 24 23 21 22 22 23 24 24 24 23 22 22 23 23 22 21 21 20 21 22 23 21 21 18 16 18 19 19 19 16 15 14 14 14 14 13 13 9 8 9 9 9 8 8 11 15 19 20 21 22 22 20 22 22 22 21 19 20
7 8 8 9 8 6 6 6 7 8 8 7 7 9 15 17 19 20 21 21 21 22 22 22 21 21 22 22 22 18 19 20 21 22 23 23 23 22 20 24 25 24 23 22 21 20 21 22 24 22 21 20 19 19 19 17 17 15 15 15 15 14 15 10 9 9 9 8 8 9 9 14 18 21 21 22 24 23 22 23 23 22 22 21 21
5 7 8 8 7 8 7 6 8 9 7 7 7 7 10 14 15 16 18 20 20 20 20 18 17 16 17 17 16 13 14 13 18 14 19 21 20 17 21 24 23 23 23 22 22 22 22 22 21 24 23 20 21 20 19 18 17 16 16 15 14 14 10 7 9 10 10 9 9 9 12 16 21 23 23 23 25 25 23 23 23 23 22 22 24
6 7 6 7 7 7 7 7 7 9 9 8 8 7 8 12 9 11 14 15 17 17 17 14 12 11 14 13 12 10 10 10 12 12 15 13 16 18 21 24 24 24 25 24 23 22 22 24 23 21 23 23 20 20 21 19 19 17 16 15 15 10 8 7 8 9 10 9 10 10 16 18 22 24 26 26 25 24 23 23 22 22 23 22 24
6 6 6 6 7 7 7 7 7 9 9 8 7 7 8 10 9 8 9 10 10 11 10 10 10 10 12 10 9 9 8 8 9 10 10 12 12 18 19 22 23 23 24 24 25 24 23 23 25 25 23 21 20 14 13 15 19 18 16 16 12 8 8 8 8 9 10 10 10 11 18 20 21 23 28 27 27 25 22 24 24 24 23 25 23
6 6 6 7 6 6 6 6 6 6 7 7 6 7 8 8 8 8 8 10 11 10 10 10 8 9 9 8 8 8 8 8 8 10 10 13 13 17 18 20 21 22 22 23 21 22 22 22 22 23 23 22 15 11 11 10 10 14 15 12 9 9 8 9 9 9 10 10 10 15 18 22 22 24 26 28 27 26 22 26 25 22 23 23 25
4 4 5 5 6 6 7 6 6 6 7 7 6 6 6 6 6 7 7 8 9 9 10 11 10 11 11 9 8 9 8 7 8 11 10 8 8 11 15 16 16 17 21 15 17 17 24 22 22 21 16 11 10 10 10 10 11 9 8 9 9 10 10 9 9 9 9 11 11 17 19 23 23 25 27 29 29 26 23 25 25 22 23 24 25
2 3 4 5 6 6 6 7 6 5 6 7 6 6 6 6 6 6 6 6 7 8 8 9 9 11 11 10 11 9 9 8 9 8 7 7 7 7 8 9 9 10 13 11 11 12 13 12 12 13 10 11 11 11 10 10 9 10 9 9 10 10 10 10 9 10 9 10 12 18 20 21 23 27 28 30 30 28 24 25 24 27 28 27 27
3 4 4 4 5 5 4 4 4 4 4 4 5 5 6 6 6 6 6 6 6 6 6 7 8 9 9 10 10 11 11 10 9 9 9 9 9 7 6 6 8 9 9 9 9 10 11 10 11 11 10 10 12 11 11 11 11 11 10 10 10 10 10 10 10 10 10 10 11 19 21 23 23 27 28 30 31 29 25 27 27 27 28 28 26
2 3 3 3 3 4 4 4 4 4 5 4 5 5 6 5 6 6 6 7 6 7 7 7 7 7 7 8 9 10 10 10 11 11 11 9 9 9 9 7 7 7 8 9 10 9 9 10 10 11 11 12 13 12 13 13 12 12 12 12 11 11 10 10 10 10 10 10 11 19 21 22 24 26 29 29 31 30 28 30 28 28 29 31 28
1 2 2 3 3 5 4 4 5 4 5 5 4 6 5 5 6 5 5 6 6 6 6 6 7 7 6 7 6 7 8 9 9 10 11 10 10 9 8 9 9 7 6 7 9 9 9 9 10 11 12 12 13 13 12 12 12 12 13 13 13 11 11 11 10 11 10 11 11 16 21 22 23 24 28 30 30 32 29 29 30 28 29 28 27
1 1 2 3 3 3 4 4 4 4 4 4 4 4 4 4 4 4 5 5 6 5 6 6 6 7 6 7 6 8 8 8 10 9 9 9 10 10 9 9 9 8 8 7 7 9 9 9 9 10 10 12 12 13 13 14 12 12 13 13 14 13 12 11 11 11 11 11 11 14 21 22 23 24 24 29 31 30 34 31 30 28 29 27 30
2 1 1 2 3 3 3 4 4 4 4 4 5 4 5 5 5 4 5 4 5 6 5 6 6 6 6 6 7 7 8 8 9 9 10 10 9 9 10 10 10 8 8 9 8 8 9 9 9 10 11 11 12 12 12 13 14 13 13 13 13 13 12 12 12 11 11 11 12 12 21 22 23 25 25 26 30 31 32 31 30 32 33 34 37
2 0 2 2 3 2 4 4 3 3 3 4 4 5 4 4 5 4 5 5 6 6 5 5 5 5 6 6 7 8 9 9 9 9 9 9 10 10 10 10 10 9 8 9 9 9 8 9 9 10 10 11 11 11 12 13 14 14 14 15 14 13 13 12 12 12 12 12 11 11 14 23 23 24 25 25 26 30 30 33 27 32 35 31 34
1 0 1 2 2 3 3 4 4 4 4 4 4 5 4 4 4 3 3 4 5 5 6 5 6 7 7 8 8 9 8 8 9 9 9 10 9 10 10 10 9 9 9 10 10 10 10 9 9 9 10 10 11 11 11 12 14 14 13 14 15 15 13 12 12 12 13 12 12 11 11 14 22 24 24 26 25 28 29 32 30 31 34 33 30
1 2 2 2 3 3 3 4 4 4 4 4 4 4 4 3 3 3 5 5 6 6 6 6 7 7 8 9 9 10 10 10 10 11 12 11 11 11 11 10 9 9 9 10 12 11 10 10 9 8 9 9 11 11 11 12 13 14 14 15 13 13 14 14 13 12 13 13 13 12 11 12 14 21 25 24 27 27 28 28 28 28 33 32 29
0 1 1 3 3 2 2 2 3 4 4 4 4 3 3 3 3 4 5 6 6 6 7 7 8 8 8 9 10 11 11 11 11 12 11 12 13 12 12 11 10 10 10 9 10 10 10 11 10 9 9 9 10 11 11 12 12 12 13 14 13 13 13 14 14 14 13 12 12 12 12 12 12 12 14 24 26 26 28 29 31 29 32 29 28
0 1 1 2 3 3 2 2 3 4 3 4 3 3 2 3 4 5 6 7 6 6 7 7 7 8 8 8 9 9 10 10 10 10 11 10 11 12 13 12 11 11 10 10 10 10 10 11 9 10 10 9 9 10 10 11 13 14 14 13 14 15 13 14 14 15 14 13 12 13 12 12 12 13 13 12 20 28 27 28 30 29 28 26 32
1 0 1 1 2 3 3 2 3 3 4 3 3 2 2 3 5 6 6 5 5 6 6 7 7 7 7 7 9 11 11 11 11 11 10 11 12 13 13 14 15 13 12 11 10 11 10 11 10 9 11 11 10 11 9 11 13 14 14 14 14 14 14 13 14 15 14 13 13 13 13 13 13 13 14 13 12 16 28 28 29 29 26 27 29
1 0 0 1 2 3 2 3 3 3 3 3 3 3 5 8 8 7 6 6 6 6 6 6 6 7 8 9 10 11 10 10 10 9 10 12 11 12 13 15 15 15 13 12 11 10 10 10 11 10 10 11 11 11 10 11 12 13 15 16 15 15 15 14 14 14 14 14 16 15 14 15 15 16 13 13 13 12 20 28 28 27 26 27 24
1 0 0 0 1 2 3 3 3 3 3 3 3 5 6 6 5 5 5 6 6 6 5 6 7 7 8 9 10 10 9 10 10 11 11 11 11 12 14 15 15 15 14 14 13 11 10 10 12 11 11 11 10 11 12 11 11 12 14 16 16 15 15 16 14 13 14 14 15 17 16 14 14 14 14 14 14 13 13 19 28 28 24 26 28
1 0 0 1 1 2 2 3 3 3 3 3 4 4 4 4 3 6 6 5 5 4 5 6 6 7 7 9 9 9 10 10 11 11 10 10 11 12 12 13 13 13 13 14 13 13 12 12 13 13 10 11 10 11 11 11 12 12 14 17 16 17 15 16 14 13 14 14 15 16 15 15 13 14 15 15 14 14 14 13 13 15 18 26 26
0 0 1 1 1 2 1 2 2 2 2 3 4 5 5 7 8 6 6 8 9 9 8 7 7 7 8 9 9 9 9 9 9 10 10 10 11 11 12 11 12 12 13 14 13 12 14 15 15 14 14 11 10 10 9 10 12 13 15 16 16 16 18 16 16 16 15 16 15 14 16 14 14 14 15 15 15 15 15 14 12 13 15 20 27
0 0 0 1 1 1 1 3 3 3 4 6 6 7 8 7 5 7 9 9 9 7 7 6 6 6 8 8 9 8 9 9 9 10 10 11 11 11 11 12 11 12 13 13 15 16 16 15 14 13 13 13 11 9 8 7 10 14 12 14 15 14 15 17 19 17 17 16 15 14 14 14 14 15 15 14 15 16 15 15 14 13 13 13 17
1 2 1 1 1 1 1 2 3 3 4 5 5 4 3 3 4 5 5 6 7 6 5 6 6 5 6 8 8 8 8 9 10 10 11 11 12 12 11 11 10 10 12 14 15 15 17 15 12 12 11 13 12 8 9 5 8 9 12 14 14 13 13 14 17 20 17 16 15 15 15 16 17 16 14 14 15 15 16 15 15 14 14 14 14
3 3 2 1 1 1 1 2 3 4 4 3 4 4 2 3 4 5 6 7 4 5 6 6 5 5 6 7 7 8 9 10 10 11 11 11 12 13 11 9 9 10 12 14 13 16 13 16 15 14 13 12 13 9 8 6 10 8 9 11 13 13 12 9 11 16 18 17 16 16 17 17 20 17 15 13 13 14 14 15 15 15 15 15 14
4 2 1 0 1 2 3 3 4 3 3 3 3 3 3 4 3 4 6 5 7 7 5 6 5 7 8 7 6 7 10 10 10 10 10 10 11 12 11 10 10 11 11 12 14 14 15 15 14 14 13 14 11 11 7 8 7 6 8 6 10 10 14 13 12 13 16 19 19 19 16 16 18 18 14 16 15 14 14 14 14 14 16 15 15
4 3 1 0 0 2 2 2 3 3 3 3 4 4 4 4 5 5 4 7 5 6 7 7 6 6 8 8 10 9 9 9 9 10 10 11 10 11 10 12 10 10 10 12 14 15 14 13 15 15 15 13 15 12 9 7 8 8 8 8 8 9 12 13 7 12 11 14 18 19 18 19 16 17 17 17 16 15 15 16 16 15 16 15 15
4 3 2 1 0 2 2 2 3 3 3 4 4 4 4 6 7 8 10 9 9 9 10 13 14 13 11 9 8 7 9 9 9 10 11 12 13 12 12 11 12 10 9 11 14 12 11 13 14 14 16 16 15 14 13 7 8 9 10 11 10 10 11 12 14 12 3 10 11 17 18 19 18 14 13 17 16 15 14 15 15 16 16 15 15
4 3 2 0 0 1 2 1 2 3 3 3 4 3 4 4 5 6 6 8 10 9 6 8 9 11 11 12 11 8 8 9 10 9 10 12 11 11 11 12 11 12 11 11 11 13 12 13 12 13 13 14 14 14 14 11 7 8 8 11 13 12 13 12 13 11 14 4 7 8 13 17 19 18 17 16 18 17 14 14 15 15 15 15 15
4 3 1 0 0 2 3 3 2 3 3 3 4 3 4 4 5 6 6 8 9 12 12 10 9 9 11 12 11 11 11 9 10 10 11 11 12 12 11 12 13 13 11 11 11 11 11 12 12 14 14 14 15 16 15 12 11 9 7 8 10 10 12 14 14 14 15 17 12 9 8 12 16 18 18 17 18 18 16 14 15 15 13 14 14
3 4 3 1 1 2 3 3 3 3 4 4 3 4 3 4 5 6 7 6 8 9 10 10 11 10 12 10 11 10 10 9 9 11 10 12 11 12 12 12 12 12 10 11 10 12 15 15 15 12 13 13 14 15 16 14 11 11 7 8 8 10 10 12 14 12 12 14 18 15 12 4 8 13 15 15 15 16 17 16 15 15 14 13 12
4 4 2 1 1 1 4 4 4 3 5 4 3 4 4 4 5 5 8 10 8 9 9 11 10 11 12 14 10 10 10 10 10 9 10 10 11 11 12 14 12 12 11 10 12 13 15 15 13 13 15 16 15 15 15 14 12 11 8 8 7 8 9 11 11 11 12 15 19 15 14 15 13 10 13 15 15 16 17 16 15 14 13 12 12
1 2 1 1 1 2 4 5 5 5 4 4 4 5 4 4 5 6 7 10 11 10 11 11 10 10 12 13 12 12 11 11 9 10 9 10 11 13 12 12 13 14 13 13 11 13 14 14 14 15 16 16 14 15 17 16 12 11 9 8 9 10 10 10 11 10 10 13 15 16 14 15 17 15 13 13 12 13 15 16 16 14 14 13 12
Wind_Direction
330 330 314 311 317 325 330 329 310 280 309 282 250 261 286 295 312 289 286 308 299 269 273 275 264 256 251 252 257 266 255 272 277 278 276 265 255 263 272 284 293 302 304 305 307 304 299 298 297 297 295 291 287 288 287 279 278 285 286 277 255 256 258 266 268 280 274 263 262 259 245 211 191 200 208 199 188 184 173 179 152 159 166 177 164
301 306 308 323 333 341 337 335 334 352 305 314 295 249 267 276 287 345 332 310 282 275 275 279 273 266 265 265 266 268 276 275 276 277 280 281 287 284 286 289 283 284 288 293 297 300 300 297 292 286 287 286 285 285 285 280 276 270 282 280 263 249 250 264 276 285 276 262 251 258 249 205 197 196 202 202 200 182 177 173 162 163 176 177 168
308 350 346 351 9 12 12 23 15 13 347 341 334 340 323 290 265 208 282 308 310 291 276 271 282 282 274 270 270 268 271 272 280 278 276 272 284 289 284 279 282 277 279 288 296 298 297 293 292 288 284 283 282 284 283 281 294 289 259 269 267 255 248 255 269 277 272 263 253 216 224 209 214 209 199 200 199 186 177 174 169 168 182 178 170
4 1 0 6 8 6 17 24 27 31 28 22 9 10 355 355 344 321 284 250 257 277 300 298 282 282 283 278 273 276 279 282 286 285 284 293 290 275 265 271 275 279 282 284 288 293 292 291 290 287 282 285 288 283 276 274 281 287 251 257 263 259 251 252 262 271 265 261 224 189 196 213 234 223 207 200 187 184 185 176 171 174 181 175 178
8 4 5 9 8 10 12 22 27 30 31 31 28 28 17 11 358 354 352 340 316 299 268 254 274 280 285 290 295 288 283 283 286 286 290 292 297 302 284 262 262 274 280 281 284 286 286 287 286 287 288 283 284 283 280 277 275 278 265 250 255 246 251 253 257 261 261 254 214 185 193 197 219 244 212 193 183 181 189 180 179 182 179 176 180
7 7 10 12 18 14 22 26 27 27 29 29 27 25 22 19 15 9 359 341 333 322 322 314 295 276 277 286 294 299 295 294 292 288 287 290 291 288 292 287 274 282 286 285 286 288 286 285 286 281 279 276 277 273 276 274 270 272 267 255 247 243 241 244 252 251 252 257 219 194 201 194 208 238 220 191 183 176 183 186 183 185 182 181 179
15 13 17 17 16 18 26 31 31 29 28 27 25 23 21 20 18 16 15 9 359 341 331 321 318 316 301 289 281 275 283 285 296 296 293 292 285 286 285 284 281 281 282 283 285 286 285 281 280 282 280 273 259 268 271 270 270 266 265 259 248 245 240 236 238 243 239 236 223 205 210 201 199 226 222 198 187 188 189 187 187 189 186 183 165
26 22 18 18 17 18 28 32 34 34 32 31 27 24 23 21 18 16 18 17 15 14 0 355 341 329 323 322 310 303 296 297 294 292 301 296 297 293 289 290 290 287 285 283 282 283 285 280 278 275 272 269 250 251 259 265 265 265 263 260 255 251 250 233 231 235 230 214 220 217 217 210 201 200 221 202 193 191 191 190 189 196 190 181 175
28 17 20 19 17 25 29 32 33 33 33 32 30 28 28 27 23 21 19 18 15 13 14 12 3 354 351 339 338 337 321 313 308 305 308 309 305 304 300 298 290 287 286 285 284 284 282 278 275 276 279 284 292 280 254 250 258 261 261 259 257 251 246 239 226 228 228 213 212 222 221 217 209 205 223 206 199 195 194 185 198 198 190 183 180
24 21 18 22 18 27 30 31 31 30 30 29 28 28 28 26 25 25 23 19 16 13 10 7 4 3 1 358 354 348 342 337 334 322 310 309 304 298 300 298 297 294 287 284 283 280 280 279 276 276 278 280 279 276 278 268 251 250 255 258 257 255 246 241 225 224 222 214 210 217 217 217 214 215 224 211 202 199 194 166 189 198 187 191 182
25 21 19 19 19 29 30 30 29 29 28 27 26 25 25 24 24 25 24 22 20 18 14 10 6 1 358 355 354 350 349 347 340 332 325 317 311 308 303 299 296 293 291 291 290 286 280 276 276 275 274 275 272 277 277 274 273 255 245 251 254 256 248 240 226 225 222 218 215 215 221 218 217 223 223 219 209 202 192 168 181 194 184 181 186
23 21 21 21 18 27 30 29 28 27 26 25 25 25 23 22 21 21 20 20 19 18 15 12 9 6 3 0 355 350 346 345 345 340 334 326 322 319 312 304 303 301 297 294 285 285 283 281 279 273 274 272 272 261 263 268 262 262 256 245 245 249 249 238 225 220 223 222 221 222 218 213 214 217 218 221 213 208 186 180 186 188 189 185 187
22 21 20 18 23 25 30 28 26 25 25 24 23 23 23 21 20 19 18 17 16 15 13 13 11 8 6 3 0 357 352 347 344 340 337 335 330 325 318 310 305 300 294 288 287 287 284 278 278 283 278 273 273 267 258 260 263 258 256 254 240 236 240 235 228 220 221 228 225 225 227 223 217 219 216 219 216 210 194 192 195 193 194 193 191
32 22 19 20 24 23 29 30 27 25 23 22 21 20 20 20 19 18 17 16 14 13 12 11 10 8 6 4 2 360 357 354 348 343 340 337 335 331 327 322 314 308 305 294 288 284 284 283 280 277 282 284 274 268 256 254 258 258 254 253 249 243 234 229 225 222 223 223 226 223 228 228 224 223 222 221 215 217 193 195 200 198 196 191 195
38 25 20 23 23 28 26 28 27 25 24 23 21 20 19 18 17 16 15 15 14 12 11 11 9 8 7 5 2 359 357 355 352 349 343 338 335 332 331 326 323 319 313 305 295 289 285 288 283 278 281 273 273 271 263 245 251 254 253 251 250 243 235 222 221 222 224 225 224 223 229 229 228 224 225 224 218 214 208 197 200 200 197 196 192
43 32 26 30 25 28 31 25 25 25 24 21 19 20 20 19 18 16 15 14 12 11 10 11 10 8 6 3 1 358 356 354 353 351 347 342 339 334 330 328 325 321 318 314 308 300 291 284 281 275 269 282 281 274 264 254 245 250 251 249 249 245 235 226 217 219 221 224 226 222 226 230 229 227 227 224 223 217 206 203 199 201 197 203 196
40 35 39 30 26 26 31 27 21 24 22 21 17 18 20 18 17 16 15 14 13 11 9 8 8 7 5 3 360 357 356 355 354 351 349 346 341 338 334 331 326 321 317 315 312 308 299 290 285 278 275 273 273 273 271 259 250 245 248 248 245 246 239 224 226 220 218 220 226 227 226 224 229 228 229 227 225 222 213 206 202 199 195 195 207
32 34 36 30 29 26 27 29 25 23 21 18 16 12 16 18 17 17 15 13 12 11 9 8 7 4 2 1 358 357 358 356 354 353 351 347 344 341 338 334 329 324 318 310 309 310 308 299 287 279 275 269 268 267 264 260 250 245 246 249 245 243 242 226 232 224 221 218 221 224 227 227 224 227 231 228 225 221 213 217 207 199 193 195 203
28 29 28 28 24 21 21 25 28 23 21 19 17 8 10 15 14 14 13 13 11 10 9 7 4 2 360 357 354 354 356 355 354 353 350 348 346 343 340 339 336 332 326 320 311 306 304 304 299 285 278 274 267 265 265 263 257 246 244 245 246 244 241 231 231 234 224 222 220 221 224 227 226 226 230 231 228 224 212 215 210 200 188 188 198
27 26 24 21 19 17 12 14 18 18 18 14 13 10 4 13 10 10 9 8 7 6 5 5 1 358 355 353 350 352 352 351 351 351 347 345 343 343 344 342 338 333 328 324 320 315 310 304 298 295 285 275 272 270 267 261 256 250 243 242 244 243 243 232 230 234 231 228 222 222 223 223 228 226 228 231 230 226 216 214 215 205 190 190 191
20 21 24 11 14 18 8 14 10 12 8 6 5 5 1 7 6 6 4 5 2 2 0 359 357 355 354 350 349 351 350 348 347 345 344 341 341 346 344 340 338 335 334 328 323 318 314 306 300 291 291 284 273 271 268 262 258 253 248 243 242 243 237 231 227 230 232 231 226 227 223 222 226 227 227 228 230 227 219 213 213 214 200 194 194
13 10 7 8 10 10 9 6 7 7 5 3 358 356 355 360 358 360 359 0 358 359 358 357 354 352 349 348 347 345 345 344 340 339 339 337 341 343 340 339 338 337 335 332 329 324 318 313 310 303 295 291 278 265 265 262 256 251 248 246 243 241 234 230 229 230 230 231 228 230 226 223 224 226 228 227 229 227 222 211 213 213 209 200 197
17 8 360 0 6 358 4 3 358 2 3 2 355 353 354 353 352 354 353 354 354 354 354 354 352 348 346 345 343 338 337 337 336 332 330 331 334 337 337 337 337 335 332 328 325 324 320 317 311 306 301 294 284 269 264 264 259 248 247 247 244 241 235 230 230 230 229 227 228 231 231 227 223 225 228 228 229 229 217 217 211 204 210 205 201
9 8 350 343 356 2 353 358 353 353 6 356 353 352 352 349 345 348 349 348 350 349 349 349 347 345 344 342 340 334 333 331 326 327 327 328 329 332 332 333 333 332 330 327 326 325 325 320 317 312 303 293 282 271 259 252 251 247 240 239 243 241 237 234 229 230 229 226 229 228 234 233 224 224 228 230 229 230 222 219 214 207 206 212 206
343 336 4 344 347 352 353 350 344 349 357 350 352 345 346 346 343 341 344 343 341 343 344 342 340 339 341 339 336 334 331 330 329 327 323 321 323 326 328 331 331 328 329 327 326 326 325 321 317 313 304 298 285 275 262 256 250 245 243 239 240 239 238 234 233 230 228 228 228 227 232 235 231 224 226 230 229 228 223 222 216 212 208 207 205
348 22 333 331 335 337 339 333 334 332 342 340 335 329 343 343 339 332 340 337 337 336 335 335 334 336 335 333 332 333 333 330 329 327 326 325 324 321 319 318 324 324 327 322 323 324 321 318 316 313 307 300 291 284 268 257 256 249 244 242 238 238 238 235 232 230 227 227 228 224 229 235 234 230 227 229 231 227 224 222 212 219 210 208 204
333 333 306 307 322 334 332 337 335 328 334 333 331 339 340 335 333 333 346 337 339 341 337 331 326 324 324 325 329 328 328 327 327 326 324 324 319 320 321 321 315 316 320 319 318 318 316 317 314 312 309 303 297 288 279 266 254 251 247 243 240 238 237 238 233 230 228 226 227 223 226 230 234 233 230 229 230 227 223 222 214 214 215 212 204
15 317 312 310 323 326 324 336 327 332 325 329 331 337 333 335 330 331 330 315 333 332 325 325 320 319 315 313 314 315 318 320 318 319 321 322 317 314 313 316 315 309 308 313 313 313 313 312 310 310 311 308 304 299 287 274 261 249 246 245 243 239 237 236 235 232 229 227 225 225 226 228 230 231 234 233 232 229 225 223 218 212 217 213 206
21 309 298 322 303 297 318 316 315 311 308 310 323 313 320 326 326 327 326 321 335 324 323 323 326 321 320 319 319 320 320 317 316 314 311 311 312 313 312 310 309 307 310 307 306 307 309 309 310 309 309 308 305 302 297 285 267 257 250 248 245 241 237 233 232 233 230 229 225 224 225 229 230 229 232 235 234 231 230 223 222 213 217 220 217
220 237 267 264 270 291 305 305 306 300 309 322 319 330 327 334 325 327 320 336 334 332 330 325 314 315 316 320 322 319 315 313 310 308 312 309 308 307 309 308 305 304 307 306 304 297 300 305 304 305 305 306 304 301 300 293 282 263 252 248 243 240 237 232 230 229 231 229 227 225 222 227 229 231 230 232 236 235 230 230 217 216 214 216 215
223 251 260 264 281 321 312 307 311 318 332 338 331 331 324 330 327 328 336 342 338 332 329 321 319 327 323 323 324 321 317 312 309 306 303 305 309 311 307 304 302 302 300 299 300 294 291 292 299 300 304 303 300 300 298 293 286 278 260 248 244 242 236 233 231 228 228 228 229 227 225 225 228 230 231 230 232 237 234 228 223 222 216 214 216
194 266 258 286 320 319 311 322 333 335 342 336 328 325 325 318 320 323 331 339 340 336 330 332 338 336 337 334 329 326 318 311 308 309 307 307 306 303 301 300 293 293 298 298 296 293 290 287 286 292 293 295 295 295 295 291 288 281 271 257 246 240 236 232 230 227 226 227 226 227 225 225 228 229 230 232 231 234 236 228 225 227 224 219 219
245 224 298 330 328 316 336 320 335 338 334 327 318 301 297 303 326 340 347 350 344 341 341 347 346 344 342 341 338 337 336 335 332 327 322 313 308 305 302 294 291 290 289 289 292 291 291 288 286 286 288 291 292 293 294 291 288 285 276 263 256 249 244 237 229 227 225 225 226 225 226 226 226 229 230 230 233 233 234 232 226 222 229 220 213
269 301 4 343 309 323 317 315 329 336 318 306 307 298 303 327 353 352 354 355 349 348 350 349 346 344 344 342 343 343 342 337 331 325 323 319 314 309 305 301 296 293 289 288 286 288 285 286 288 288 285 288 292 294 297 295 290 287 280 275 262 251 243 237 232 227 226 224 222 222 223 224 225 225 228 230 231 233 233 235 230 223 222 225 217
242 355 340 296 322 317 320 329 319 312 302 299 303 306 330 351 0 1 3 358 351 350 348 342 342 341 341 342 341 340 335 329 325 320 319 317 314 311 306 304 301 294 288 287 287 282 281 282 284 287 286 282 283 289 292 291 294 291 286 279 269 258 247 240 234 229 223 224 220 221 221 222 223 223 224 226 230 232 232 232 234 230 224 222 213
163 225 279 322 325 315 311 315 304 293 290 290 298 308 339 3 13 11 358 352 345 347 344 344 340 335 336 334 340 339 334 331 326 324 325 331 327 321 318 314 309 301 294 288 281 280 280 278 277 275 285 285 285 286 288 290 292 292 290 282 276 263 248 238 236 232 227 224 222 222 219 221 222 222 221 223 226 228 230 232 234 232 227 225 221
191 180 257 295 320 305 307 299 289 284 281 296 312 328 5 18 14 1 348 343 347 346 342 337 330 335 341 340 341 335 331 327 325 331 331 322 317 315 313 312 312 310 303 294 285 279 275 276 275 273 268 277 283 285 286 289 289 290 290 285 277 271 259 247 238 234 228 222 222 222 222 221 221 220 220 222 223 228 227 228 232 234 219 228 225
180 181 215 250 293 292 295 286 291 291 304 322 341 3 15 15 3 354 341 341 345 337 329 334 338 342 338 337 334 330 327 327 330 329 320 318 317 317 315 314 311 307 304 301 294 289 278 272 274 267 268 270 275 283 287 287 288 289 287 284 278 271 263 250 240 232 229 222 221 221 220 222 222 221 220 221 221 224 227 226 228 230 225 215 214
154 211 325 333 299 284 275 291 296 307 315 334 354 8 11 7 359 348 343 336 331 328 336 340 342 335 333 330 330 331 329 330 327 322 319 315 312 308 304 303 303 301 299 298 296 294 287 277 271 271 260 262 268 275 279 285 286 285 284 281 278 271 266 256 244 234 230 226 222 220 220 221 223 223 220 220 220 220 223 225 220 221 227 224 213
188 354 327 299 266 267 267 280 284 288 305 346 354 360 8 6 354 345 335 340 345 344 345 340 337 334 332 332 330 324 324 321 320 320 314 308 305 302 301 304 307 308 304 300 296 295 292 286 277 269 267 264 264 269 272 279 284 283 284 283 274 270 265 257 246 235 231 228 226 221 219 217 220 223 223 220 218 219 220 222 220 216 220 220 217
229 251 231 256 243 241 320 338 318 334 5 2 5 3 3 354 348 348 345 340 331 330 321 320 319 318 323 326 323 321 319 319 316 313 309 308 305 305 305 308 305 302 301 298 301 298 293 286 279 272 269 270 267 263 262 271 288 292 287 281 282 271 265 261 251 239 229 226 225 220 217 217 217 221 221 221 219 217 217 217 216 216 214 215 218
231 224 218 244 250 336 20 330 335 0 10 12 1 360 11 348 326 324 325 315 314 308 307 307 309 311 314 315 315 314 315 314 312 312 310 310 310 306 301 294 298 297 299 300 298 297 296 291 284 279 267 269 268 257 265 278 277 280 303 307 296 286 273 269 255 237 230 225 222 218 217 215 216 219 221 221 221 219 217 214 213 211 209 211 209
204 208 218 265 327 3 4 2 359 5 360 347 0 342 327 333 341 316 323 310 266 266 288 290 290 303 313 311 313 315 320 318 316 314 312 311 308 303 296 295 297 306 304 299 296 294 291 291 286 279 279 266 266 256 258 222 269 273 278 294 290 303 291 259 253 246 232 227 223 220 216 213 214 215 218 219 219 215 216 213 209 204 204 207 206
218 210 242 285 313 3 2 10 356 343 330 330 341 320 321 324 311 296 297 278 295 294 274 267 283 308 316 316 308 316 315 309 306 302 301 298 295 293 293 296 300 301 297 296 294 290 291 289 288 280 271 272 265 266 227 234 229 266 284 249 294 294 287 269 253 239 226 223 219 221 217 216 213 211 212 217 220 219 215 213 210 204 201 201 204
199 201 208 219 352 344 345 2 330 326 320 332 326 316 326 328 320 309 291 300 291 301 315 314 316 315 311 322 321 317 307 301 300 302 302 300 296 292 294 292 291 293 295 292 290 285 285 293 296 291 278 268 270 265 253 229 236 218 243 286 283 263 254 279 299 256 212 221 221 217 215 215 217 209 208 214 214 214 214 211 209 204 201 196 200
206 208 196 202 84 329 343 336 321 323 333 320 315 331 342 337 335 337 336 334 324 332 332 326 324 326 321 309 300 300 304 302 303 306 304 305 301 298 293 292 290 290 290 285 284 289 299 299 294 293 287 274 265 264 264 237 237 232 225 235 244 272 293 297 306 294 298 238 230 220 216 216 213 217 214 210 209 210 208 208 201 201 198 196 196
215 205 206 193 300 285 299 318 309 314 317 306 311 331 336 330 324 318 311 311 313 306 305 303 305 309 313 311 308 304 300 304 307 304 306 302 298 295 293 290 289 288 288 288 294 297 293 290 292 289 290 288 273 264 260 263 253 238 229 235 242 243 251 266 277 294 283 275 247 231 228 217 211 211 216 217 210 207 207 207 204 200 197 197 198
197 175 186 229 217 278 297 308 312 310 300 290 306 325 322 316 315 311 309 314 314 308 314 311 305 303 304 304 306 306 305 304 301 302 299 300 298 294 293 291 288 284 283 282 285 289 289 285 284 285 287 283 276 269 266 258 247 257 209 236 248 252 256 262 262 270 283 291 272 249 248 225 213 211 212 214 210 204 200 202 203 199 196 192 191
189 177 192 207 224 279 304 315 314 302 288 287 309 316 306 301 299 302 307 303 304 304 308 306 306 305 299 299 299 298 299 297 294 297 296 296 296 296 292 287 285 284 282 281 279 286 289 289 288 285 287 293 291 278 261 252 245 252 244 243 248 254 256 254 264 261 265 276 271 232 218 247 236 214 208 213 212 204 197 196 199 196 191 190 185
198 181 186 151 279 316 311 306 305 290 279 291 306 304 293 297 298 304 306 307 309 304 305 304 304 309 305 305 303 301 302 299 297 291 292 292 293 292 294 292 289 287 282 278 284 285 285 282 280 287 290 287 285 283 273 261 251 250 240 247 255 263 262 267 258 264 261 251 263 250 213 195 203 215 203 204 209 206 197 192 190 190 187 182 178
214 164 184 245 280 294 283 292 282 285 281 291 295 284 284 284 295 302 303 303 307 307 309 304 303 305 304 303 304 303 300 297 297 296 289 291 292 293 291 288 288 289 287 286 283 285 282 280 283 283 278 273 277 279 276 265 254 251 243 235 240 243 253 260 266 265 267 281 284 247 215 207 207 199 202 197 198 200 197 187 184 185 181 177 177